Location: Sungai Jaoh
(2.9167°N, 113.9167°E)
Time: 06:11:55
(UTC+00:00)

OAO 3 Rocket - Pass Details

Date: 30 November 2020
Orbit: 629 x 682 km, 35.0° (Epoch: 25 January)

Event Time Altitude Azimuth Distance (km) Brightness Sun altitude
Rises 12:00:56 0° 238° (WSW) 3,003 7.9 -26.0°
Reaches altitude 10° 12:03:21 10° 241° (WSW) 2,081 6.8 -26.6°
Enters shadow 12:07:35 60° 281° (W) 752 3.6 -27.6°
